| time (UTC) | temp F | wind direction | speed MPH | gust MPH | rain 1hr in | rain 24hr in | rain mn in | humidity % | barometer mb |
| 20260503221513 | 64 | 360 | 3.0 | 8.0 | 0.00 | 0.00 | 0.05 | 71 | 1014.3 |
| 20260503220012 | 64 | 360 | 1.0 | 10.0 | 0.00 | 0.00 | 0.05 | 72 | 1014.3 |
| 20260503214511 | 64 | 360 | 1.0 | 10.0 | 0.00 | 0.00 | 0.05 | 72 | 1014.4 |
| 20260503213010 | 64 | 360 | 1.0 | 8.0 | 0.00 | 0.00 | 0.05 | 72 | 1014.3 |
| 20260503211509 | 64 | 360 | 2.0 | 8.0 | 0.00 | 0.00 | 0.05 | 73 | 1014.2 |
| 20260503210008 | 63 | 360 | 3.0 | 9.0 | 0.00 | 0.00 | 0.05 | 73 | 1014.2 |
| 20260503204507 | 62 | 360 | 1.0 | 8.0 | 0.00 | 0.00 | 0.05 | 74 | 1014.3 |
| 20260503203006 | 62 | 360 | 5.0 | 6.0 | 0.00 | 0.00 | 0.05 | 75 | 1014.5 |
| 20260503200004 | 61 | 360 | 2.0 | 9.0 | 0.00 | 0.00 | 0.05 | 73 | 1014.5 |
| 20260503194503 | 60 | 360 | 3.0 | 8.0 | 0.00 | 0.00 | 0.05 | 75 | 1014.5 |
| 20260503193002 | 60 | 360 | 1.0 | 5.0 | 0.00 | 0.00 | 0.05 | 80 | 1014.6 |
| 20260503191501 | 59 | 360 | 2.0 | 6.0 | 0.00 | 0.00 | 0.05 | 82 | 1014.6 |
| 20260503182958 | 58 | 360 | 3.0 | 4.0 | 0.00 | 0.00 | 0.05 | 85 | 1014.4 |
| 20260503181457 | 58 | 360 | 1.0 | 6.0 | 0.00 | 0.00 | 0.05 | 86 | 1014.4 |
| 20260503175955 | 59 | 125 | 2.0 | 9.0 | 0.00 | 0.00 | 0.05 | 88 | 1014.4 |
| 20260503174455 | 58 | 142 | 2.0 | 4.0 | 0.00 | 0.00 | 0.05 | 88 | 1014.3 |
| 20260503172954 | 58 | 172 | 0.0 | 0.0 | 0.00 | 0.00 | 0.05 | 89 | 1014.2 |
| 20260503171453 | 57 | 360 | 0.0 | 0.0 | 0.00 | 0.00 | 0.05 | 89 | 1014.2 |
| 20260503081416 | 56 | 360 | 0.0 | 0.0 | 0.00 | 0.00 | 0.00 | 85 | 1013.2 |
| 20260503072913 | 56 | 360 | 0.0 | 1.0 | 0.00 | 0.00 | 0.00 | 85 | 1013.1 |
| 20260503071411 | 56 | 360 | 0.0 | 1.0 | 0.00 | 0.00 | 0.00 | 85 | 1013.0 |
| 20260503054405 | 56 | 94 | 0.0 | 3.0 | 0.00 | 0.00 | 0.00 | 84 | 1013.5 |
| 20260503052904 | 56 | 94 | 0.0 | 2.0 | 0.00 | 0.00 | 0.00 | 84 | 1013.6 |
| 20260503051403 | 56 | 94 | 0.0 | 2.0 | 0.00 | 0.00 | 0.00 | 84 | 1013.7 |
| 20260503045902 | 56 | 58 | 0.0 | 1.0 | 0.00 | 0.00 | 0.00 | 84 | 1013.7 |
| 20260503044401 | 56 | 360 | 0.0 | 3.0 | 0.00 | 0.00 | 0.00 | 83 | 1013.6 |
| 20260503042900 | 56 | 360 | 0.0 | 2.0 | 0.00 | 0.00 | 0.00 | 83 | 1013.6 |
| 20260503041359 | 56 | 360 | 0.0 | 2.0 | 0.00 | 0.00 | 0.00 | 83 | 1013.4 |
| 20260503035858 | 56 | 360 | 2.0 | 2.0 | 0.00 | 0.00 | 0.00 | 83 | 1013.3 |
| 20260503034357 | 57 | 360 | 0.0 | 2.0 | 0.00 | 0.00 | 0.00 | 82 | 1013.3 |
| 20260503032856 | 57 | 360 | 0.0 | 2.0 | 0.00 | 0.00 | 0.00 | 81 | 1013.2 |
| 20260503031355 | 57 | 360 | 0.0 | 1.0 | 0.00 | 0.00 | 0.00 | 81 | 1012.9 |
| 20260503025854 | 57 | 360 | 0.0 | 2.0 | 0.00 | 0.00 | 0.00 | 80 | 1012.7 |
| 20260503024353 | 57 | 360 | 0.0 | 1.0 | 0.00 | 0.00 | 0.00 | 80 | 1012.7 |
| 20260503021351 | 58 | 360 | 1.0 | 1.0 | 0.00 | 0.00 | 0.00 | 79 | 1012.8 |
| 20260503015850 | 58 | 360 | 0.0 | 2.0 | 0.00 | 0.00 | 0.00 | 78 | 1012.9 |
| 20260503014349 | 59 | 360 | 0.0 | 1.0 | 0.00 | 0.00 | 0.00 | 78 | 1013.0 |
| 20260503012847 | 59 | 360 | 0.0 | 2.0 | 0.00 | 0.00 | 0.00 | 77 | 1013.0 |
| 20260503011346 | 59 | 360 | 1.0 | 3.0 | 0.00 | 0.00 | 0.00 | 78 | 1013.2 |
| 20260503005846 | 59 | 360 | 1.0 | 4.0 | 0.00 | 0.00 | 0.00 | 77 | 1013.2 |
| 20260503002843 | 59 | 360 | 1.0 | 3.0 | 0.00 | 0.00 | 0.00 | 76 | 1013.3 |
| 20260502235841 | 60 | 360 | 2.0 | 3.0 | 0.00 | 0.00 | 0.00 | 76 | 1013.5 |
| 20260502232839 | 60 | 360 | 2.0 | 3.0 | 0.00 | 0.00 | 0.00 | 77 | 1013.6 |
| 20260502231338 | 60 | 360 | 0.0 | 4.0 | 0.00 | 0.00 | 0.00 | 76 | 1013.8 |
| 20260502225837 | 60 | 360 | 2.0 | 5.0 | 0.00 | 0.00 | 0.00 | 76 | 1014.1 |
| 20260502224337 | 61 | 360 | 1.0 | 3.0 | 0.00 | 0.00 | 0.00 | 75 | 1014.3 |
| 20260502222835 | 61 | 360 | 0.0 | 4.0 | 0.00 | 0.00 | 0.00 | 74 | 1014.4 |